Time,TemperatureF,DewpointF,PressureIn,WindDirection,WindDirectionDegrees,WindSpeedMPH,WindSpeedGustMPH,Humidity,HourlyPrecipIn,Conditions,Clouds,dailyrainin,SoftwareType,DateUTC
2013-01-01 00:00:00,-8.1,-11.2,30.36,SW,233,0.0,3.1,86,0.00,,CLR,0.00,VWS V14.01,2013-01-01 06:00:00,
2013-01-01 00:10:00,-8.5,-11.6,30.36,SW,234,0.0,0.0,86,0.00,,CLR,0.00,VWS V14.01,2013-01-01 06:10:00,
2013-01-01 00:20:00,-8.4,-11.4,30.36,SW,234,0.0,2.1,86,0.00,,CLR,0.00,VWS V14.01,2013-01-01 06:20:00,
2013-01-01 00:30:00,-8.1,-10.9,30.36,SW,234,0.0,0.0,87,0.00,,CLR,0.00,VWS V14.01,2013-01-01 06:30:00,
2013-01-01 00:40:00,-8.3,-11.4,30.36,SW,234,0.0,0.0,86,0.00,,CLR,0.00,VWS V14.01,2013-01-01 06:40:00,
2013-01-01 00:50:00,-8.4,-11.4,30.36,West,269,0.0,2.1,86,0.00,,SCT032,0.00,VWS V14.01,2013-01-01 06:50:00,
2013-01-01 01:00:00,-8.5,-11.6,30.36,West,267,0.0,2.1,86,0.00,,SCT032,0.00,VWS V14.01,2013-01-01 07:00:00,
2013-01-01 01:10:00,-9.2,-12.5,30.36,WSW,250,0.0,0.0,85,0.00,,SCT032,0.00,VWS V14.01,2013-01-01 07:10:00,
2013-01-01 01:20:00,-9.0,-12.0,30.36,WSW,250,0.0,0.0,86,0.00,,SCT032,0.00,VWS V14.01,2013-01-01 07:20:00,
2013-01-01 01:30:00,-8.7,-11.8,30.36,WSW,250,0.0,0.0,86,0.00,,SCT030,0.00,VWS V14.01,2013-01-01 07:30:00,
2013-01-01 01:40:00,-7.7,-10.5,30.35,WSW,250,0.0,0.0,87,0.00,,SCT030,0.00,VWS V14.01,2013-01-01 07:40:00,
2013-01-01 01:50:00,-7.6,-10.7,30.36,WSW,250,0.0,0.0,86,0.00,,OVC032,0.00,VWS V14.01,2013-01-01 07:50:00,
2013-01-01 02:00:00,-8.1,-11.4,30.36,WSW,250,0.0,0.0,85,0.00,,OVC032,0.00,VWS V14.01,2013-01-01 08:00:00,
2013-01-01 02:10:00,-9.1,-12.6,30.36,WSW,250,0.0,0.0,84,0.00,,OVC032,0.00,VWS V14.01,2013-01-01 08:10:00,
2013-01-01 02:20:00,-10.4,-13.9,30.36,WSW,250,0.0,0.0,84,0.00,,OVC032,0.00,VWS V14.01,2013-01-01 08:20:00,
2013-01-01 02:30:00,-10.5,-13.8,30.36,WSW,250,0.0,0.0,85,0.00,,OVC032,0.00,VWS V14.01,2013-01-01 08:30:00,
2013-01-01 02:40:00,-9.3,-12.1,30.36,SSW,194,3.0,3.1,87,0.00,,OVC032,0.00,VWS V14.01,2013-01-01 08:40:00,
2013-01-01 02:50:00,-9.0,-12.0,30.36,ESE,121,2.0,4.2,86,0.00,,OVC032,0.00,VWS V14.01,2013-01-01 08:50:00,
2013-01-01 03:00:00,-9.1,-12.1,30.35,ESE,107,3.0,4.2,86,0.00,,OVC032,0.00,VWS V14.01,2013-01-01 09:00:00,
2013-01-01 03:10:00,-9.1,-12.1,30.35,ESE,107,3.0,3.1,86,0.00,,OVC034,0.00,VWS V14.01,2013-01-01 09:10:00,
2013-01-01 03:20:00,-9.1,-12.1,30.34,ESE,107,3.0,3.1,86,0.00,,OVC034,0.00,VWS V14.01,2013-01-01 09:20:00,
2013-01-01 03:30:00,-9.4,-12.7,30.34,WSW,250,0.0,3.1,85,0.00,,OVC034,0.00,VWS V14.01,2013-01-01 09:30:00,
2013-01-01 03:40:00,-8.0,-10.8,30.35,SW,234,3.0,4.2,87,0.00,,OVC034,0.00,VWS V14.01,2013-01-01 09:40:00,
2013-01-01 03:50:00,-6.9,-9.7,30.35,SW,231,0.0,4.2,87,0.00,,,0.00,VWS V14.01,2013-01-01 09:50:00,
2013-01-01 04:00:00,-6.4,-9.2,30.35,SW,231,0.0,0.0,87,0.00,,,0.00,VWS V14.01,2013-01-01 10:00:00,
2013-01-01 04:10:00,-5.8,-8.7,30.35,SW,231,0.0,0.0,87,0.00,,OVC034,0.00,VWS V14.01,2013-01-01 10:10:00,
2013-01-01 04:20:00,-5.3,-8.2,30.35,SW,231,0.0,0.0,87,0.00,,OVC034,0.00,VWS V14.01,2013-01-01 10:20:00,
2013-01-01 04:30:00,-4.3,-7.2,30.35,SW,222,2.0,4.2,87,0.00,,,0.00,VWS V14.01,2013-01-01 10:30:00,
2013-01-01 04:40:00,-3.5,-6.2,30.35,SSW,209,4.0,4.2,88,0.00,,,0.00,VWS V14.01,2013-01-01 10:40:00,
2013-01-01 04:50:00,-3.0,-5.7,30.35,SSW,205,4.0,4.2,88,0.00,,OVC019,0.00,VWS V14.01,2013-01-01 10:50:00,
2013-01-01 05:00:00,-2.3,-5.0,30.34,SSW,192,1.0,6.3,88,0.00,,OVC019,0.00,VWS V14.01,2013-01-01 11:00:00,
2013-01-01 05:10:00,-1.5,-4.0,30.34,South,188,1.0,5.2,89,0.00,,OVC019,0.00,VWS V14.01,2013-01-01 11:10:00,
2013-01-01 05:20:00,-0.7,-3.2,30.34,South,186,5.0,8.4,89,0.00,,OVC019,0.00,VWS V14.01,2013-01-01 11:20:00,
2013-01-01 05:30:00,-0.1,-2.8,30.33,South,182,7.0,8.4,88,0.00,,OVC013,0.00,VWS V14.01,2013-01-01 11:30:00,
2013-01-01 05:40:00,0.4,-2.1,30.33,South,183,7.0,8.4,89,0.00,,OVC013,0.00,VWS V14.01,2013-01-01 11:40:00,
2013-01-01 05:50:00,0.8,-1.9,30.33,South,189,5.0,7.3,88,0.00,,OVC009,0.00,VWS V14.01,2013-01-01 11:50:00,
2013-01-01 06:00:00,1.1,-1.4,30.34,South,169,0.0,6.3,89,0.00,,OVC009,0.00,VWS V14.01,2013-01-01 12:00:00,
2013-01-01 06:10:00,1.5,-1.0,30.34,South,177,3.0,4.2,89,0.00,,OVC007,0.00,VWS V14.01,2013-01-01 12:10:00,
2013-01-01 06:20:00,1.8,-0.7,30.33,SSE,164,2.0,4.2,89,0.00,,OVC007,0.00,VWS V14.01,2013-01-01 12:20:00,
2013-01-01 06:30:00,2.1,-0.4,30.33,SSE,161,3.0,5.2,89,0.00,,OVC007,0.00,VWS V14.01,2013-01-01 12:30:00,
2013-01-01 06:40:00,2.5,0.0,30.33,SSE,161,3.0,5.2,89,0.00,,OVC007,0.00,VWS V14.01,2013-01-01 12:40:00,
2013-01-01 06:50:00,2.8,0.3,30.33,SE,135,5.0,7.3,89,0.00,,OVC016,0.00,VWS V14.01,2013-01-01 12:50:00,
2013-01-01 07:00:00,3.2,0.7,30.33,SE,126,3.0,6.3,89,0.00,,OVC016,0.00,VWS V14.01,2013-01-01 13:00:00,
2013-01-01 07:10:00,3.2,0.7,30.33,SE,139,4.0,6.3,89,0.00,,OVC016,0.00,VWS V14.01,2013-01-01 13:10:00,
2013-01-01 07:20:00,3.4,0.9,30.33,SSE,152,5.0,5.2,89,0.00,,OVC016,0.00,VWS V14.01,2013-01-01 13:20:00,
2013-01-01 07:30:00,3.8,1.3,30.33,SE,132,5.0,6.3,89,0.00,,OVC016,0.00,VWS V14.01,2013-01-01 13:30:00,
2013-01-01 07:40:00,3.8,1.3,30.32,SE,130,6.0,7.3,89,0.00,,OVC016,0.00,VWS V14.01,2013-01-01 13:40:00,
2013-01-01 07:50:00,4.0,1.5,30.32,SE,138,5.0,7.3,89,0.00,,OVC016,0.00,VWS V14.01,2013-01-01 13:50:00,
2013-01-01 08:00:00,4.2,1.7,30.32,SE,133,4.0,6.3,89,0.00,,OVC016,0.00,VWS V14.01,2013-01-01 14:00:00,
2013-01-01 08:10:00,4.4,1.9,30.32,SE,145,5.0,7.3,89,0.00,,OVC018,0.00,VWS V14.01,2013-01-01 14:10:00,
2013-01-01 08:20:00,4.5,2.0,30.32,SE,145,6.0,7.3,89,0.00,,OVC018,0.00,VWS V14.01,2013-01-01 14:20:00,
2013-01-01 08:30:00,4.8,2.0,30.31,SE,140,5.0,7.3,88,0.00,,OVC018,0.00,VWS V14.01,2013-01-01 14:30:00,
2013-01-01 08:40:00,5.0,2.2,30.31,SE,144,6.0,8.4,88,0.00,,OVC018,0.00,VWS V14.01,2013-01-01 14:40:00,
2013-01-01 08:50:00,5.3,2.5,30.31,SSE,154,6.0,7.3,88,0.00,,OVC018,0.00,VWS V14.01,2013-01-01 14:50:00,
2013-01-01 09:00:00,5.5,2.7,30.31,SSE,155,4.0,7.3,88,0.00,,OVC018,0.00,VWS V14.01,2013-01-01 15:00:00,
2013-01-01 09:10:00,5.7,2.9,30.31,SSE,154,7.0,8.4,88,0.00,,OVC018,0.00,VWS V14.01,2013-01-01 15:10:00,
2013-01-01 09:20:00,6.1,3.3,30.31,SSE,159,5.0,7.3,88,0.00,,OVC018,0.00,VWS V14.01,2013-01-01 15:20:00,
2013-01-01 09:30:00,6.5,3.7,30.31,SSE,159,4.0,6.3,88,0.00,,OVC018,0.00,VWS V14.01,2013-01-01 15:30:00,
2013-01-01 09:40:00,7.1,4.3,30.30,South,175,2.0,6.3,88,0.00,,OVC018,0.00,VWS V14.01,2013-01-01 15:40:00,
2013-01-01 09:50:00,7.6,4.6,30.30,SSE,165,5.0,6.3,87,0.00,,OVC020,0.00,VWS V14.01,2013-01-01 15:50:00,
2013-01-01 10:00:00,8.1,5.0,30.30,South,169,3.0,7.3,87,0.00,,OVC020,0.00,VWS V14.01,2013-01-01 16:00:00,
2013-01-01 10:10:00,8.4,5.3,30.30,South,171,4.0,10.5,87,0.00,,OVC020,0.00,VWS V14.01,2013-01-01 16:10:00,
2013-01-01 10:20:00,8.8,5.7,30.30,South,175,7.0,10.5,87,0.00,,OVC020,0.00,VWS V14.01,2013-01-01 16:20:00,
2013-01-01 10:30:00,9.2,6.1,30.30,South,181,8.0,10.5,87,0.00,,OVC022,0.00,VWS V14.01,2013-01-01 16:30:00,
2013-01-01 10:40:00,9.8,7.0,30.30,South,180,8.0,11.5,88,0.00,,OVC022,0.00,VWS V14.01,2013-01-01 16:40:00,
2013-01-01 10:50:00,10.4,7.6,30.29,South,178,5.0,9.4,88,0.00,,OVC029,0.00,VWS V14.01,2013-01-01 16:50:00,
2013-01-01 11:00:00,11.1,8.2,30.28,South,171,3.0,11.5,88,0.00,,OVC029,0.00,VWS V14.01,2013-01-01 17:00:00,
2013-01-01 11:10:00,11.8,8.7,30.28,South,174,5.0,9.4,87,0.00,,OVC027,0.00,VWS V14.01,2013-01-01 17:10:00,
2013-01-01 11:20:00,12.3,9.2,30.28,South,173,5.0,9.4,87,0.00,,OVC027,0.00,VWS V14.01,2013-01-01 17:20:00,
2013-01-01 11:30:00,12.8,9.7,30.27,South,175,4.0,10.5,87,0.00,,OVC027,0.00,VWS V14.01,2013-01-01 17:30:00,
2013-01-01 11:40:00,13.1,10.0,30.27,South,171,5.0,11.5,87,0.00,,OVC027,0.00,VWS V14.01,2013-01-01 17:40:00,
2013-01-01 11:50:00,13.3,10.2,30.26,South,180,9.0,12.6,87,0.00,,OVC029,0.00,VWS V14.01,2013-01-01 17:50:00,
2013-01-01 12:00:00,13.8,10.6,30.26,South,180,5.0,11.5,87,0.00,,OVC029,0.00,VWS V14.01,2013-01-01 18:00:00,
2013-01-01 12:10:00,14.5,11.6,30.25,South,184,7.0,11.5,88,0.00,,OVC029,0.00,VWS V14.01,2013-01-01 18:10:00,
2013-01-01 12:20:00,15.0,12.1,30.25,South,187,10.0,13.6,88,0.00,,OVC029,0.00,VWS V14.01,2013-01-01 18:20:00,
2013-01-01 12:30:00,15.5,12.6,30.24,South,180,11.0,13.6,88,0.00,,OVC029,0.00,VWS V14.01,2013-01-01 18:30:00,
2013-01-01 12:40:00,15.8,12.9,30.23,South,191,15.0,16.8,88,0.00,,OVC029,0.00,VWS V14.01,2013-01-01 18:40:00,
2013-01-01 12:50:00,16.2,13.3,30.23,South,179,13.0,16.8,88,0.00,,OVC029,0.00,VWS V14.01,2013-01-01 18:50:00,
2013-01-01 13:00:00,16.6,13.9,30.23,SSW,200,8.0,16.8,89,0.00,,OVC029,0.00,VWS V14.01,2013-01-01 19:00:00,
2013-01-01 13:10:00,16.8,13.9,30.23,South,186,13.0,16.8,88,0.00,,OVC029,0.00,VWS V14.01,2013-01-01 19:10:00,
2013-01-01 13:20:00,17.2,14.5,30.23,SSW,195,9.0,14.7,89,0.00,,OVC029,0.00,VWS V14.01,2013-01-01 19:20:00,
2013-01-01 13:30:00,17.7,15.0,30.22,SSW,192,9.0,14.7,89,0.00,,OVC013,0.00,VWS V14.01,2013-01-01 19:30:00,
2013-01-01 13:40:00,18.3,15.6,30.22,SSW,198,10.0,13.6,89,0.00,,OVC013,0.00,VWS V14.01,2013-01-01 19:40:00,
2013-01-01 13:50:00,18.9,16.2,30.22,SSW,213,8.0,13.6,89,0.00,,OVC013,0.00,VWS V14.01,2013-01-01 19:50:00,
2013-01-01 14:00:00,19.4,16.7,30.21,SSW,196,10.0,11.5,89,0.00,,OVC013,0.00,VWS V14.01,2013-01-01 20:00:00,
2013-01-01 14:10:00,19.8,17.4,30.21,SSW,204,11.0,13.6,90,0.00,,OVC013,0.00,VWS V14.01,2013-01-01 20:10:00,
2013-01-01 14:20:00,20.2,17.7,30.20,SSW,202,9.0,12.6,90,0.00,,OVC013,0.00,VWS V14.01,2013-01-01 20:20:00,
2013-01-01 14:30:00,20.8,18.3,30.20,SW,217,10.0,12.6,90,0.00,,OVC013,0.00,VWS V14.01,2013-01-01 20:30:00,
2013-01-01 14:40:00,21.6,19.1,30.20,SSW,209,9.0,14.7,90,0.00,,OVC013,0.00,VWS V14.01,2013-01-01 20:40:00,
2013-01-01 14:50:00,22.3,19.8,30.20,SW,222,13.0,16.8,90,0.00,,OVC013,0.00,VWS V14.01,2013-01-01 20:50:00,
2013-01-01 15:00:00,22.5,19.8,30.20,SSW,211,9.0,18.9,89,0.00,,OVC013,0.00,VWS V14.01,2013-01-01 21:00:00,
2013-01-01 15:10:00,22.6,19.9,30.20,SW,223,11.0,15.7,89,0.00,,OVC013,0.00,VWS V14.01,2013-01-01 21:10:00,
2013-01-01 15:20:00,22.5,20.0,30.19,SW,223,10.0,16.8,90,0.00,,OVC013,0.00,VWS V14.01,2013-01-01 21:20:00,
2013-01-01 15:30:00,22.6,19.9,30.19,SW,221,11.0,14.7,89,0.00,,OVC013,0.00,VWS V14.01,2013-01-01 21:30:00,
2013-01-01 15:40:00,22.6,19.9,30.19,SW,220,11.0,14.7,89,0.00,,OVC013,0.00,VWS V14.01,2013-01-01 21:40:00,
2013-01-01 15:50:00,22.6,20.1,30.19,SW,227,11.0,15.7,90,0.00,,OVC013,0.00,VWS V14.01,2013-01-01 21:50:00,
2013-01-01 16:00:00,22.6,20.1,30.19,SW,219,15.0,17.8,90,0.00,,OVC013,0.00,VWS V14.01,2013-01-01 22:00:00,
2013-01-01 16:10:00,22.5,20.0,30.19,SW,215,11.0,16.8,90,0.00,,OVC013,0.00,VWS V14.01,2013-01-01 22:10:00,
2013-01-01 16:20:00,22.3,19.8,30.19,SW,221,11.0,14.7,90,0.00,,OVC013,0.00,VWS V14.01,2013-01-01 22:20:00,
2013-01-01 16:30:00,21.9,19.7,30.19,SW,217,14.0,14.7,91,0.00,,OVC013,0.00,VWS V14.01,2013-01-01 22:30:00,
2013-01-01 16:40:00,21.8,19.6,30.18,SW,214,14.0,17.8,91,0.00,,OVC013,0.00,VWS V14.01,2013-01-01 22:40:00,
2013-01-01 16:50:00,21.6,19.4,30.18,SSW,205,10.0,14.7,91,0.00,,OVC013,0.00,VWS V14.01,2013-01-01 22:50:00,
2013-01-01 17:00:00,21.4,19.2,30.17,SSW,208,10.0,14.7,91,0.00,,OVC013,0.00,VWS V14.01,2013-01-01 23:00:00,
2013-01-01 17:10:00,21.2,19.0,30.17,SSW,205,11.0,13.6,91,0.00,,OVC013,0.00,VWS V14.01,2013-01-01 23:10:00,
2013-01-01 17:20:00,21.1,19.1,30.17,SSW,207,10.0,12.6,92,0.00,,OVC013,0.00,VWS V14.01,2013-01-01 23:20:00,
2013-01-01 17:30:00,21.0,19.0,30.17,SSW,202,9.0,12.6,92,0.00,,OVC011,0.00,VWS V14.01,2013-01-01 23:30:00,
2013-01-01 17:40:00,20.9,19.0,30.17,SSW,204,8.0,13.6,92,0.00,,OVC011,0.00,VWS V14.01,2013-01-01 23:40:00,
2013-01-01 17:50:00,20.6,18.4,30.17,SSW,205,10.0,15.7,91,0.00,,OVC011,0.00,VWS V14.01,2013-01-01 23:50:00,
2013-01-01 18:00:00,20.4,18.5,30.17,SSW,198,12.0,13.6,92,0.00,,OVC011,0.00,VWS V14.01,2013-01-02 00:00:00,
2013-01-01 18:10:00,20.4,18.5,30.16,SSW,205,13.0,15.7,92,0.00,,OVC011,0.00,VWS V14.01,2013-01-02 00:10:00,
2013-01-01 18:20:00,20.4,18.5,30.16,SSW,197,9.0,14.7,92,0.00,,OVC011,0.00,VWS V14.01,2013-01-02 00:20:00,
2013-01-01 18:30:00,20.4,18.5,30.16,SSW,198,10.0,14.7,92,0.00,,OVC011,0.00,VWS V14.01,2013-01-02 00:30:00,
2013-01-01 18:40:00,20.4,18.5,30.16,South,190,11.0,13.6,92,0.00,,OVC011,0.00,VWS V14.01,2013-01-02 00:40:00,
2013-01-01 18:50:00,20.6,18.6,30.15,South,188,13.0,14.7,92,0.00,,OVC011,0.00,VWS V14.01,2013-01-02 00:50:00,
2013-01-01 19:00:00,20.6,18.6,30.15,SSW,193,8.0,13.6,92,0.00,,OVC011,0.00,VWS V14.01,2013-01-02 01:00:00,
2013-01-01 19:10:00,20.7,18.8,30.14,SSW,192,8.0,13.6,92,0.00,,OVC011,0.00,VWS V14.01,2013-01-02 01:10:00,
2013-01-01 19:20:00,20.6,18.6,30.14,South,182,7.0,11.5,92,0.00,,OVC011,0.00,VWS V14.01,2013-01-02 01:20:00,
2013-01-01 19:30:00,20.6,18.6,30.14,SSW,192,7.0,13.6,92,0.00,,OVC011,0.00,VWS V14.01,2013-01-02 01:30:00,
2013-01-01 19:40:00,20.6,18.6,30.13,South,186,10.0,11.5,92,0.00,,OVC011,0.00,VWS V14.01,2013-01-02 01:40:00,
2013-01-01 19:50:00,20.7,18.8,30.13,SSW,200,9.0,12.6,92,0.00,,OVC011,0.00,VWS V14.01,2013-01-02 01:50:00,
2013-01-01 20:00:00,20.9,19.0,30.13,SSW,199,8.0,11.5,92,0.00,,OVC011,0.00,VWS V14.01,2013-01-02 02:00:00,
2013-01-01 20:10:00,21.1,19.1,30.12,SSW,198,7.0,10.5,92,0.00,,OVC011,0.00,VWS V14.01,2013-01-02 02:10:00,
2013-01-01 20:20:00,21.2,19.2,30.12,SSW,210,7.0,10.5,92,0.00,,OVC011,0.00,VWS V14.01,2013-01-02 02:20:00,
2013-01-01 20:30:00,21.3,19.3,30.12,SSW,199,7.0,9.4,92,0.00,,OVC011,0.00,VWS V14.01,2013-01-02 02:30:00,
2013-01-01 20:40:00,21.5,19.5,30.11,SSW,196,8.0,10.5,92,0.00,,OVC011,0.00,VWS V14.01,2013-01-02 02:40:00,
2013-01-01 20:50:00,21.6,19.6,30.11,SSW,207,9.0,9.4,92,0.00,,OVC011,0.00,VWS V14.01,2013-01-02 02:50:00,
2013-01-01 21:00:00,21.7,19.7,30.11,SSW,210,9.0,11.5,92,0.00,,OVC011,0.00,VWS V14.01,2013-01-02 03:00:00,
2013-01-01 21:10:00,21.8,19.8,30.10,SW,218,8.0,11.5,92,0.00,,OVC011,0.00,VWS V14.01,2013-01-02 03:10:00,
2013-01-01 21:20:00,21.9,19.9,30.10,SSW,205,10.0,14.7,92,0.00,,OVC011,0.00,VWS V14.01,2013-01-02 03:20:00,
2013-01-01 21:30:00,22.0,20.0,30.10,SSW,209,7.0,11.5,92,0.00,,OVC011,0.00,VWS V14.01,2013-01-02 03:30:00,
2013-01-01 21:40:00,22.0,20.0,30.09,SSW,202,7.0,12.6,92,0.00,,OVC011,0.00,VWS V14.01,2013-01-02 03:40:00,
2013-01-01 21:50:00,21.9,19.9,30.09,SSW,211,8.0,13.6,92,0.00,,OVC011,0.00,VWS V14.01,2013-01-02 03:50:00,
2013-01-01 22:00:00,22.0,20.0,30.08,South,191,11.0,13.6,92,0.00,,OVC011,0.00,VWS V14.01,2013-01-02 04:00:00,
2013-01-01 22:10:00,22.0,20.0,30.08,SSW,193,8.0,13.6,92,0.00,,OVC011,0.00,VWS V14.01,2013-01-02 04:10:00,
2013-01-01 22:20:00,22.0,20.0,30.08,SSW,212,10.0,12.6,92,0.00,,OVC011,0.00,VWS V14.01,2013-01-02 04:20:00,
2013-01-01 22:30:00,22.1,20.1,30.07,SSW,205,9.0,14.7,92,0.00,,OVC011,0.00,VWS V14.01,2013-01-02 04:30:00,
2013-01-01 22:40:00,22.0,20.0,30.07,SSW,206,12.0,12.6,92,0.00,,OVC011,0.00,VWS V14.01,2013-01-02 04:40:00,
2013-01-01 22:50:00,22.1,20.1,30.07,SSW,209,8.0,14.7,92,0.00,,OVC011,0.00,VWS V14.01,2013-01-02 04:50:00,
2013-01-01 23:00:00,22.2,20.2,30.08,SW,219,10.0,14.7,92,0.00,,OVC011,0.00,VWS V14.01,2013-01-02 05:00:00,
2013-01-01 23:10:00,22.1,20.1,30.08,SSW,211,8.0,12.6,92,0.00,,SCT011,0.00,VWS V14.01,2013-01-02 05:10:00,
2013-01-01 23:20:00,22.0,20.0,30.07,SSW,205,11.0,12.6,92,0.00,,SCT011,0.00,VWS V14.01,2013-01-02 05:20:00,
2013-01-01 23:30:00,22.0,19.8,30.07,SSW,200,12.0,16.8,91,0.00,,CLR,0.00,VWS V14.01,2013-01-02 05:30:00,
2013-01-01 23:40:00,21.2,19.0,30.07,SSW,207,7.0,14.7,91,0.00,,CLR,0.00,VWS V14.01,2013-01-02 05:40:00,
2013-01-01 23:50:00,20.6,18.4,30.06,SSW,194,7.0,9.4,91,0.00,,CLR,0.00,VWS V14.01,2013-01-02 05:50:00,